Location: Peterborough
(44.3091°N, 78.3197°W)
Time: 06:14:15
(UTC-04:00)

Vanguard 2 - Pass Details

Date: 25 March 2023
Orbit: 552 x 2926 km, 32.9° (Epoch: 04 June)

Event Time Altitude Azimuth Distance (km) Brightness Sun altitude
Rises 06:39:10 0° 229° (SW) 6,753 11.8 -5.9°
Reaches altitude 10° 06:44:06 10° 223° (SW) 5,741 11.5 -5.0°
Maximum altitude 06:59:35 41° 162° (SSE) 3,347 10.9 -2.3°
Drops below altitude 10° 07:11:19 10° 98° (E) 4,404 13.4 -0.2°
Sets 07:14:30 0° 91° (E) 5,104 15.3 0.4°
